Regional Weather Roundup
Issued by NWS Midland/Odessa, TX

Skip options and go directly to product.
Home | Oldest Version | Previous Version | Current Version | All | Text Only | Save Text | Print | Product List | Glossary Off

Skip product version selection by date and time.   

380
ASUS44 KMAF 231501
RWRMAF
MIDLAND AREA WEATHER ROUNDUP
NATIONAL WEATHER SERVICE MIDLAND TX
1000 AM CDT SAT JUL 23 2016

...IN SOUTHWEST TEXAS AND SOUTHEAST NEW MEXICO...

CITY           SKY/WX    TMP DP  RH WIND       PRES   REMARKS
ALPINE         SUNNY     82  54  37 CALM      30.21S
ANDREWS        FAIR      84  59  42 S13       30.09R
ARTESIA        SUNNY     82  57  42 SE14      30.09S
BIG SPRING     SUNNY     84  64  50 S13       30.09S
CARLSBAD       SUNNY     83  57  41 SE8       30.06S
DRYDEN           N/A     86  65  49 E13       30.02S
FORT STOCKTON  SUNNY     87  58  37 S10       30.05F
GUAD PASS      SUNNY     80  52  37 CALM      30.22R
HOBBS          SUNNY     82  55  39 S15G22    30.12R
MARFA          SUNNY     79  55  43 S9        30.20S
MIDLAND AIRPK  SUNNY     86  61  42 S9        30.07F
MIDLAND INTL   SUNNY     87  61  41 S10       30.07R
ODESSA         SUNNY     85  60  42 S13       30.08S
PECOS          SUNNY     86  56  36 SE5       30.02S
PRESIDIO       NOT AVBL
SEMINOLE       SUNNY     85  57  38 S15       30.10S
SNYDER           N/A     83  64  52 S12       30.07S
WINK           SUNNY     85  59  41 SE17      30.03S
$$
...OTHER STATIONS IN TEXAS...

CITY           SKY/WX    TMP DP  RH WIND       PRES   REMARKS
ABILENE        SUNNY     87  67  51 S14       30.04S
AMARILLO       SUNNY     86  56  35 SW21G28   30.09R
AUSTIN         MOSUNNY   85  73  67 SW12      30.03S
BROWNSVILLE    MOSUNNY   88  75  65 SE8       29.98R
CORPUS CHRISTI PTSUNNY   86  77  74 VRB6      29.99S
DALLAS FTW     MOSUNNY   90  71  53 SW12      29.99F
DEL RIO        SUNNY     86  71  60 SE12      30.00R
EL PASO        PTSUNNY   85  50  29 CALM      30.08R
HOUSTON INT    MOSUNNY   87  75  67 VRB6      30.01S
LUBBOCK        SUNNY     86  59  39 SW14      30.09S
SAN ANGELO     SUNNY     87  68  52 S15       30.05R
SAN ANTONIO    MOSUNNY   84  72  67 SW8       30.04S
WACO           SUNNY     88  70  55 SW8       30.01S
WICHITA FALLS  NOT AVBL
$$
...OTHER LOCATIONS IN NEW MEXICO...

CITY           SKY/WX    TMP DP  RH WIND       PRES   REMARKS
ALAMAGORDO     SUNNY     86  45  23 W6        30.12R
ALBUQUERQUE    MOSUNNY   78  50  37 SE3       30.20S
CANNON AFB     SUNNY     84  55  36 S12       30.12F
CLOVIS         SUNNY     82  55  39 S16       30.13S
HOLLOMAN AFB   NOT AVBL
ROSWELL        SUNNY     84  55  36 S17       30.09R
RUIDOSO          N/A     77  41  27 CALM      30.32S
SANTA FE       SUNNY     80  49  33 NW12      30.26R
TRUTH OR CONSE SUNNY     85  48  27 N8        30.14S
TUCUMCARI      SUNNY     87  52  29 SW18      30.08S
$$

USA.gov is the U.S. government's official web portal to all federal, state and local government web resources and services.